| time (UTC) | temp C | wind direction | speed KPH | gust KPH | rain 1hr cm | rain 24hr cm | rain mn cm | humidity % | barometer mb |
| 20260504151005 | 24 | 236 | 12.9 | 0.0 | 0.00 | 0.00 | 0.00 | 32 | 2147.4 |
| 20260504150504 | 25 | 236 | 12.9 | 0.0 | 0.00 | 0.00 | 0.00 | 32 | 2147.4 |
| 20260504140932 | 24 | 236 | 12.9 | 0.0 | 0.00 | 0.00 | 0.00 | 33 | 2147.4 |
| 20260504140431 | 24 | 236 | 14.5 | 0.0 | 0.00 | 0.00 | 0.00 | 32 | 2147.4 |
| 20260504130400 | 26 | 225 | 17.7 | 0.0 | 0.00 | 0.00 | 0.00 | 29 | 2147.4 |
| 20260504110245 | 27 | 225 | 19.3 | 0.0 | 0.00 | 0.00 | 0.00 | 25 | 2147.4 |
| 20260504100210 | 26 | 220 | 22.5 | 0.0 | 0.00 | 0.00 | 0.00 | 26 | 2147.4 |
| 20260504090134 | 26 | 214 | 19.3 | 0.0 | 0.00 | 0.00 | 0.00 | 29 | 2147.4 |
| 20260504081604 | 24 | 211 | 17.7 | 0.0 | 0.00 | 0.00 | 0.00 | 30 | 2147.4 |
| 20260504081103 | 25 | 211 | 17.7 | 0.0 | 0.00 | 0.00 | 0.00 | 31 | 2147.4 |
| 20260504080600 | 24 | 211 | 17.7 | 0.0 | 0.00 | 0.00 | 0.00 | 34 | 2147.4 |
| 20260504050403 | 18 | 202 | 12.9 | 0.0 | 0.00 | 0.00 | 0.00 | 42 | 2147.4 |
| 20260504045900 | 18 | 202 | 12.9 | 0.0 | 0.00 | 0.00 | 0.00 | 42 | 2147.4 |
| 20260504045357 | 17 | 202 | 12.9 | 0.0 | 0.00 | 0.00 | 0.00 | 42 | 2147.4 |
| 20260504044853 | 17 | 202 | 12.9 | 0.0 | 0.00 | 0.00 | 0.00 | 42 | 2147.4 |
| 20260504044350 | 17 | 202 | 12.9 | 0.0 | 0.00 | 0.00 | 0.00 | 44 | 2147.4 |
| 20260504043846 | 17 | 202 | 12.9 | 0.0 | 0.00 | 0.00 | 0.00 | 43 | 2147.4 |
| 20260504043343 | 16 | 202 | 12.9 | 0.0 | 0.00 | 0.00 | 0.00 | 46 | 2147.4 |
| 20260504042840 | 16 | 202 | 12.9 | 0.0 | 0.00 | 0.00 | 0.00 | 44 | 2147.4 |
| 20260504042336 | 15 | 202 | 12.9 | 0.0 | 0.00 | 0.00 | 0.00 | 46 | 2147.4 |
| 20260504041833 | 15 | 202 | 12.9 | 0.0 | 0.00 | 0.00 | 0.00 | 49 | 2147.4 |
| 20260504041329 | 14 | 202 | 12.9 | 0.0 | 0.00 | 0.00 | 0.00 | 50 | 2147.4 |
| 20260504040826 | 13 | 202 | 12.9 | 0.0 | 0.00 | 0.00 | 0.00 | 52 | 2147.4 |
| 20260504040322 | 12 | 202 | 12.9 | 0.0 | 0.00 | 0.00 | 0.00 | 55 | 2147.4 |
| 20260504035819 | 11 | 202 | 12.9 | 0.0 | 0.00 | 0.00 | 0.00 | 57 | 2147.4 |
| 20260504035315 | 11 | 202 | 12.9 | 0.0 | 0.00 | 0.00 | 0.00 | 58 | 2147.4 |
| 20260504034812 | 10 | 202 | 12.9 | 0.0 | 0.00 | 0.00 | 0.00 | 59 | 2147.4 |
| 20260504034308 | 10 | 202 | 12.9 | 0.0 | 0.00 | 0.00 | 0.00 | 62 | 2147.4 |
| 20260504033804 | 9 | 202 | 12.9 | 0.0 | 0.00 | 0.00 | 0.00 | 64 | 2147.4 |
| 20260504033302 | 8 | 197 | 11.3 | 0.0 | 0.00 | 0.00 | 0.00 | 64 | 2147.4 |
| 20260504032758 | 8 | 197 | 11.3 | 0.0 | 0.00 | 0.00 | 0.00 | 64 | 2147.4 |
| 20260504032257 | 8 | 197 | 11.3 | 0.0 | 0.00 | 0.00 | 0.00 | 64 | 2147.4 |
| 20260504031753 | 8 | 197 | 11.3 | 0.0 | 0.00 | 0.00 | 0.00 | 66 | 2147.4 |
| 20260504031250 | 7 | 197 | 11.3 | 0.0 | 0.00 | 0.00 | 0.00 | 70 | 2147.4 |
| 20260504030747 | 7 | 197 | 11.3 | 0.0 | 0.00 | 0.00 | 0.00 | 74 | 2147.4 |
| 20260504030243 | 6 | 197 | 11.3 | 0.0 | 0.00 | 0.00 | 0.00 | 75 | 2147.4 |
| 20260504025740 | 6 | 197 | 11.3 | 0.0 | 0.00 | 0.00 | 0.00 | 77 | 2147.4 |
| 20260504025236 | 6 | 197 | 11.3 | 0.0 | 0.00 | 0.00 | 0.00 | 76 | 2147.4 |
| 20260504024732 | 6 | 197 | 11.3 | 0.0 | 0.00 | 0.00 | 0.00 | 75 | 2147.4 |
| 20260504024229 | 6 | 197 | 11.3 | 0.0 | 0.00 | 0.00 | 0.00 | 75 | 2147.4 |
| 20260504023726 | 6 | 213 | 9.7 | 0.0 | 0.00 | 0.00 | 0.00 | 74 | 2147.4 |
| 20260504023225 | 6 | 213 | 9.7 | 0.0 | 0.00 | 0.00 | 0.00 | 72 | 2147.4 |
| 20260504022721 | 6 | 213 | 9.7 | 0.0 | 0.00 | 0.00 | 0.00 | 73 | 2147.4 |
| 20260504022220 | 7 | 213 | 9.7 | 0.0 | 0.00 | 0.00 | 0.00 | 74 | 2147.4 |
| 20260504021717 | 7 | 213 | 9.7 | 0.0 | 0.00 | 0.00 | 0.00 | 74 | 2147.4 |
| 20260504021213 | 7 | 213 | 9.7 | 0.0 | 0.00 | 0.00 | 0.00 | 71 | 2147.4 |
| 20260504020709 | 7 | 213 | 9.7 | 0.0 | 0.00 | 0.00 | 0.00 | 74 | 2147.4 |
| 20260504020208 | 6 | 213 | 9.7 | 0.0 | 0.00 | 0.00 | 0.00 | 72 | 2147.4 |
| 20260504015705 | 7 | 213 | 9.7 | 0.0 | 0.00 | 0.00 | 0.00 | 72 | 2147.4 |
| 20260504015201 | 7 | 213 | 9.7 | 0.0 | 0.00 | 0.00 | 0.00 | 70 | 2147.4 |
| 20260504014658 | 7 | 213 | 9.7 | 0.0 | 0.00 | 0.00 | 0.00 | 69 | 2147.4 |
| 20260504014154 | 7 | 213 | 9.7 | 0.0 | 0.00 | 0.00 | 0.00 | 69 | 2147.4 |
| 20260504013651 | 7 | 200 | 9.7 | 0.0 | 0.00 | 0.00 | 0.00 | 68 | 2147.4 |
| 20260504013147 | 7 | 200 | 9.7 | 0.0 | 0.00 | 0.00 | 0.00 | 67 | 2147.4 |
| 20260504012644 | 7 | 200 | 9.7 | 0.0 | 0.00 | 0.00 | 0.00 | 66 | 2147.4 |
| 20260504012140 | 7 | 200 | 9.7 | 0.0 | 0.00 | 0.00 | 0.00 | 67 | 2147.4 |
| 20260504011637 | 7 | 200 | 9.7 | 0.0 | 0.00 | 0.00 | 0.00 | 68 | 2147.4 |
| 20260504011133 | 7 | 200 | 9.7 | 0.0 | 0.00 | 0.00 | 0.00 | 70 | 2147.4 |
| 20260504010629 | 7 | 200 | 9.7 | 0.0 | 0.00 | 0.00 | 0.00 | 70 | 2147.4 |
| 20260504010125 | 7 | 200 | 9.7 | 0.0 | 0.00 | 0.00 | 0.00 | 72 | 2147.4 |
| 20260504005622 | 7 | 200 | 9.7 | 0.0 | 0.00 | 0.00 | 0.00 | 70 | 2147.4 |
| 20260504005119 | 7 | 210 | 9.7 | 0.0 | 0.00 | 0.00 | 0.00 | 73 | 2147.4 |
| 20260504004615 | 7 | 210 | 9.7 | 0.0 | 0.00 | 0.00 | 0.00 | 72 | 2147.4 |
| 20260504004112 | 7 | 210 | 9.7 | 0.0 | 0.00 | 0.00 | 0.00 | 72 | 2147.4 |
| 20260504003608 | 7 | 210 | 9.7 | 0.0 | 0.00 | 0.00 | 0.00 | 74 | 2147.4 |
| 20260504003107 | 7 | 205 | 9.7 | 0.0 | 0.00 | 0.00 | 0.00 | 70 | 2147.4 |
| 20260504002604 | 6 | 205 | 9.7 | 0.0 | 0.00 | 0.00 | 0.00 | 77 | 2147.4 |
| 20260504002101 | 6 | 205 | 9.7 | 0.0 | 0.00 | 0.00 | 0.00 | 76 | 2147.4 |
| 20260504001558 | 6 | 205 | 9.7 | 0.0 | 0.00 | 0.00 | 0.00 | 76 | 2147.4 |
| 20260504001055 | 7 | 205 | 9.7 | 0.0 | 0.00 | 0.00 | 0.00 | 76 | 2147.4 |
| 20260504000551 | 7 | 205 | 9.7 | 0.0 | 0.00 | 0.00 | 0.00 | 75 | 2147.4 |
| 20260504000048 | 7 | 205 | 9.7 | 0.0 | 0.00 | 0.00 | 0.00 | 76 | 2147.4 |
| 20260503235545 | 7 | 205 | 9.7 | 0.0 | 0.00 | 0.00 | 0.00 | 75 | 2147.4 |
| 20260503235041 | 7 | 205 | 9.7 | 0.0 | 0.00 | 0.00 | 0.00 | 74 | 2147.4 |
| 20260503234537 | 7 | 205 | 9.7 | 0.0 | 0.00 | 0.00 | 0.00 | 73 | 2147.4 |
| 20260503234034 | 7 | 205 | 9.7 | 0.0 | 0.00 | 0.00 | 0.00 | 73 | 2147.4 |
| 20260503233530 | 7 | 206 | 9.7 | 0.0 | 0.00 | 0.00 | 0.00 | 75 | 2147.4 |
| 20260503233029 | 7 | 206 | 9.7 | 0.0 | 0.00 | 0.00 | 0.00 | 73 | 2147.4 |
| 20260503232526 | 7 | 206 | 9.7 | 0.0 | 0.00 | 0.00 | 0.00 | 71 | 2147.4 |
| 20260503232024 | 7 | 206 | 9.7 | 0.0 | 0.00 | 0.00 | 0.00 | 70 | 2147.4 |
| 20260503231521 | 7 | 206 | 9.7 | 0.0 | 0.00 | 0.00 | 0.00 | 70 | 2147.4 |
| 20260503231017 | 7 | 206 | 9.7 | 0.0 | 0.00 | 0.00 | 0.00 | 70 | 2147.4 |
| 20260503230514 | 7 | 206 | 9.7 | 0.0 | 0.00 | 0.00 | 0.00 | 70 | 2147.4 |
| 20260503230010 | 7 | 206 | 9.7 | 0.0 | 0.00 | 0.00 | 0.00 | 69 | 2147.4 |
| 20260503225507 | 7 | 206 | 9.7 | 0.0 | 0.00 | 0.00 | 0.00 | 69 | 2147.4 |
| 20260503225006 | 7 | 206 | 9.7 | 0.0 | 0.00 | 0.00 | 0.00 | 70 | 2147.4 |
| 20260503224502 | 7 | 206 | 9.7 | 0.0 | 0.00 | 0.00 | 0.00 | 70 | 2147.4 |
| 20260503224001 | 7 | 206 | 9.7 | 0.0 | 0.00 | 0.00 | 0.00 | 68 | 2147.4 |
| 20260503223457 | 7 | 205 | 9.7 | 0.0 | 0.00 | 0.00 | 0.00 | 70 | 2147.4 |
| 20260503222953 | 7 | 205 | 9.7 | 0.0 | 0.00 | 0.00 | 0.00 | 68 | 2147.4 |
| 20260503222450 | 7 | 205 | 9.7 | 0.0 | 0.00 | 0.00 | 0.00 | 71 | 2147.4 |
| 20260503221947 | 7 | 205 | 9.7 | 0.0 | 0.00 | 0.00 | 0.00 | 69 | 2147.4 |
| 20260503221443 | 7 | 205 | 9.7 | 0.0 | 0.00 | 0.00 | 0.00 | 67 | 2147.4 |
| 20260503220940 | 8 | 205 | 9.7 | 0.0 | 0.00 | 0.00 | 0.00 | 67 | 2147.4 |
| 20260503220436 | 7 | 205 | 9.7 | 0.0 | 0.00 | 0.00 | 0.00 | 69 | 2147.4 |
| 20260503215933 | 7 | 205 | 9.7 | 0.0 | 0.00 | 0.00 | 0.00 | 68 | 2147.4 |
| 20260503215429 | 7 | 205 | 9.7 | 0.0 | 0.00 | 0.00 | 0.00 | 70 | 2147.4 |
| 20260503214927 | 7 | 205 | 9.7 | 0.0 | 0.00 | 0.00 | 0.00 | 71 | 2147.4 |
| 20260503214423 | 7 | 205 | 9.7 | 0.0 | 0.00 | 0.00 | 0.00 | 73 | 2147.4 |
| 20260503213922 | 7 | 205 | 9.7 | 0.0 | 0.00 | 0.00 | 0.00 | 67 | 2147.4 |
| 20260503213418 | 7 | 206 | 9.7 | 0.0 | 0.00 | 0.00 | 0.00 | 69 | 2147.4 |
| 20260503212915 | 7 | 206 | 9.7 | 0.0 | 0.00 | 0.00 | 0.00 | 72 | 2147.4 |
| 20260503212412 | 8 | 206 | 9.7 | 0.0 | 0.00 | 0.00 | 0.00 | 73 | 2147.4 |
| 20260503211909 | 8 | 206 | 9.7 | 0.0 | 0.00 | 0.00 | 0.00 | 69 | 2147.4 |
| 20260503211405 | 8 | 206 | 9.7 | 0.0 | 0.00 | 0.00 | 0.00 | 67 | 2147.4 |
| 20260503210902 | 8 | 206 | 9.7 | 0.0 | 0.00 | 0.00 | 0.00 | 69 | 2147.4 |
| 20260503210358 | 8 | 206 | 9.7 | 0.0 | 0.00 | 0.00 | 0.00 | 69 | 2147.4 |
| 20260503205855 | 8 | 206 | 9.7 | 0.0 | 0.00 | 0.00 | 0.00 | 70 | 2147.4 |
| 20260503205352 | 8 | 206 | 9.7 | 0.0 | 0.00 | 0.00 | 0.00 | 66 | 2147.4 |
| 20260503204848 | 8 | 206 | 9.7 | 0.0 | 0.00 | 0.00 | 0.00 | 71 | 2147.4 |
| 20260503204345 | 8 | 206 | 9.7 | 0.0 | 0.00 | 0.00 | 0.00 | 72 | 2147.4 |
| 20260503203842 | 8 | 206 | 9.7 | 0.0 | 0.00 | 0.00 | 0.00 | 68 | 2147.4 |
| 20260503203338 | 8 | 205 | 9.7 | 0.0 | 0.00 | 0.00 | 0.00 | 66 | 2147.4 |
| 20260503202835 | 9 | 205 | 9.7 | 0.0 | 0.00 | 0.00 | 0.00 | 64 | 2147.4 |
| 20260503202332 | 9 | 205 | 9.7 | 0.0 | 0.00 | 0.00 | 0.00 | 65 | 2147.4 |
| 20260503201828 | 9 | 205 | 9.7 | 0.0 | 0.00 | 0.00 | 0.00 | 67 | 2147.4 |
| 20260503201325 | 9 | 205 | 9.7 | 0.0 | 0.00 | 0.00 | 0.00 | 67 | 2147.4 |
| 20260503200824 | 9 | 205 | 9.7 | 0.0 | 0.00 | 0.00 | 0.00 | 67 | 2147.4 |
| 20260503200321 | 9 | 205 | 9.7 | 0.0 | 0.00 | 0.00 | 0.00 | 66 | 2147.4 |
| 20260503195817 | 9 | 205 | 9.7 | 0.0 | 0.00 | 0.00 | 0.00 | 67 | 2147.4 |
| 20260503195313 | 10 | 205 | 9.7 | 0.0 | 0.00 | 0.00 | 0.00 | 65 | 2147.4 |
| 20260503194812 | 10 | 205 | 9.7 | 0.0 | 0.00 | 0.00 | 0.00 | 67 | 2147.4 |
| 20260503194309 | 10 | 205 | 9.7 | 0.0 | 0.00 | 0.00 | 0.00 | 64 | 2147.4 |
| 20260503193806 | 10 | 205 | 9.7 | 0.0 | 0.00 | 0.00 | 0.00 | 65 | 2147.4 |
| 20260503193302 | 10 | 199 | 9.7 | 0.0 | 0.00 | 0.00 | 0.00 | 64 | 2147.4 |
| 20260503192759 | 10 | 199 | 9.7 | 0.0 | 0.00 | 0.00 | 0.00 | 63 | 2147.4 |
| 20260503192255 | 10 | 199 | 9.7 | 0.0 | 0.00 | 0.00 | 0.00 | 62 | 2147.4 |
| 20260503191751 | 11 | 199 | 9.7 | 0.0 | 0.00 | 0.00 | 0.00 | 60 | 2147.4 |
| 20260503191249 | 11 | 199 | 9.7 | 0.0 | 0.00 | 0.00 | 0.00 | 62 | 2147.4 |
| 20260503190745 | 11 | 199 | 9.7 | 0.0 | 0.00 | 0.00 | 0.00 | 60 | 2147.4 |
| 20260503190241 | 11 | 199 | 9.7 | 0.0 | 0.00 | 0.00 | 0.00 | 60 | 2147.4 |
| 20260503185738 | 11 | 199 | 9.7 | 0.0 | 0.00 | 0.00 | 0.00 | 60 | 2147.4 |
| 20260503185237 | 11 | 199 | 9.7 | 0.0 | 0.00 | 0.00 | 0.00 | 59 | 2147.4 |
| 20260503184734 | 11 | 207 | 11.3 | 0.0 | 0.00 | 0.00 | 0.00 | 58 | 2147.4 |
| 20260503184231 | 12 | 207 | 11.3 | 0.0 | 0.00 | 0.00 | 0.00 | 59 | 2147.4 |
| 20260503183727 | 12 | 207 | 11.3 | 0.0 | 0.00 | 0.00 | 0.00 | 58 | 2147.4 |
| 20260503183223 | 12 | 207 | 11.3 | 0.0 | 0.00 | 0.00 | 0.00 | 57 | 2147.4 |
| 20260503182719 | 13 | 207 | 11.3 | 0.0 | 0.00 | 0.00 | 0.00 | 55 | 2147.4 |
| 20260503182216 | 13 | 207 | 11.3 | 0.0 | 0.00 | 0.00 | 0.00 | 52 | 2147.4 |
| 20260503181713 | 14 | 207 | 11.3 | 0.0 | 0.00 | 0.00 | 0.00 | 51 | 2147.4 |
| 20260503181209 | 15 | 207 | 11.3 | 0.0 | 0.00 | 0.00 | 0.00 | 48 | 2147.4 |
| 20260503180706 | 15 | 207 | 11.3 | 0.0 | 0.00 | 0.00 | 0.00 | 45 | 2147.4 |
| 20260503180202 | 16 | 207 | 11.3 | 0.0 | 0.00 | 0.00 | 0.00 | 41 | 2147.4 |
| 20260503175659 | 16 | 207 | 11.3 | 0.0 | 0.00 | 0.00 | 0.00 | 38 | 2147.4 |
| 20260503175155 | 16 | 207 | 11.3 | 0.0 | 0.00 | 0.00 | 0.00 | 38 | 2147.4 |
| 20260503174652 | 16 | 207 | 11.3 | 0.0 | 0.00 | 0.00 | 0.00 | 39 | 2147.4 |
| 20260503174148 | 17 | 207 | 11.3 | 0.0 | 0.00 | 0.00 | 0.00 | 37 | 2147.4 |
| 20260503173645 | 18 | 207 | 11.3 | 0.0 | 0.00 | 0.00 | 0.00 | 37 | 2147.4 |
| 20260503173141 | 18 | 207 | 11.3 | 0.0 | 0.00 | 0.00 | 0.00 | 35 | 2147.4 |
| 20260503172637 | 18 | 207 | 11.3 | 0.0 | 0.00 | 0.00 | 0.00 | 33 | 2147.4 |
| 20260503172134 | 19 | 207 | 11.3 | 0.0 | 0.00 | 0.00 | 0.00 | 33 | 2147.4 |
| 20260503171631 | 20 | 207 | 11.3 | 0.0 | 0.00 | 0.00 | 0.00 | 33 | 2147.4 |
| 20260503171127 | 21 | 207 | 11.3 | 0.0 | 0.00 | 0.00 | 0.00 | 29 | 2147.4 |
| 20260503170624 | 21 | 207 | 11.3 | 0.0 | 0.00 | 0.00 | 0.00 | 29 | 2147.4 |
| 20260503170120 | 21 | 207 | 11.3 | 0.0 | 0.00 | 0.00 | 0.00 | 29 | 2147.4 |